Terminal Aerodrome Forecast
Issued by NWS

Current Version | Previous Version | Graphics & Text | Print | Product List | Glossary On
Versions: 1 2 3 4 5 6 7 8 9 10 11 12 13 14 15 16 17 18 19 20
000
FTUS41 KPBZ 172200 AAA
TAFMGW
TAF AMD
KMGW 172255Z 1723/1818 26008KT P6SM OVC022
     FM180600 28007KT P6SM BKN025
     FM181400 26006KT P6SM BKN035=

USA.gov is the U.S. government's official web portal to all federal, state and local government web resources and services.